Theta_e
345 348 352 355 356 355 355 355 354 354 353 353 353 353 353 352 352 351 351 351 351 351 351 351 351 351 351 350 350 350 350 351 351 350 350 349 348 349 350 350 350 350 350 350 350 350 349 349 349 349 349 348 349 350 350 349 349 349 348 349 348 348 347 347 346 346 347 347 347 346 347 347 346 346 346 345 344 343 343 342 341 339 340 341 341
345 349 353 354 355 355 354 354 354 353 353 353 353 352 353 352 351 350 350 351 350 350 350 350 350 350 350 350 350 349 349 349 350 350 349 348 350 351 350 350 349 349 349 349 349 349 349 348 348 349 348 348 350 350 350 350 349 350 350 350 349 348 347 347 347 347 347 347 347 346 345 345 346 345 346 346 345 344 343 342 343 340 340 341 341
347 349 352 353 356 355 354 354 353 353 353 352 353 353 352 352 351 350 351 351 349 349 349 349 348 348 348 348 348 347 347 348 349 348 348 351 352 351 350 350 348 348 348 349 349 348 348 348 348 348 348 349 349 350 351 350 350 350 350 350 350 349 348 347 347 347 347 347 347 345 345 344 344 344 345 345 345 344 343 343 343 342 341 341 341
346 349 352 354 355 354 354 353 353 353 353 352 352 352 352 350 351 351 351 349 349 348 348 347 347 347 347 347 346 346 346 348 348 348 352 352 351 351 349 348 348 348 348 348 348 348 348 348 348 348 349 349 350 351 350 349 349 349 349 350 350 350 348 347 346 346 346 347 346 345 346 345 344 344 344 344 344 343 343 343 343 343 342 342 341
347 349 351 352 354 355 354 353 353 353 352 352 352 353 351 351 350 350 350 349 349 348 347 346 346 346 346 346 346 346 346 347 347 350 352 351 350 349 348 348 348 348 347 348 348 348 348 347 348 348 349 351 350 350 349 348 348 347 348 348 349 349 349 346 346 347 347 346 345 346 346 344 347 345 345 345 344 343 343 343 343 343 343 342 341
347 348 351 351 351 353 354 353 353 352 352 353 352 352 351 351 350 350 350 349 349 348 347 345 345 346 346 346 346 346 346 346 347 352 351 351 350 349 349 348 347 348 347 347 348 347 347 348 347 348 349 350 349 349 348 348 348 348 348 348 348 349 349 348 346 347 347 346 344 347 346 345 345 343 344 344 344 344 344 343 343 342 343 342 341
347 348 350 351 351 353 354 353 352 352 352 352 353 352 351 351 351 350 350 349 348 348 346 345 344 345 345 345 345 346 346 346 347 352 351 350 349 349 348 346 346 346 347 347 347 347 348 347 348 349 349 349 349 349 348 348 348 349 349 349 349 349 350 350 347 347 346 346 348 348 346 344 345 345 343 344 344 344 343 343 342 342 342 342 341
348 348 350 349 351 353 354 353 352 352 352 353 352 352 352 351 351 350 350 349 348 347 345 344 344 344 345 345 345 346 346 346 346 350 350 349 349 348 347 346 346 346 346 347 347 347 348 348 349 349 349 348 347 348 348 348 349 350 350 350 351 350 351 351 349 346 344 345 347 348 347 345 344 344 343 344 344 343 343 342 342 342 342 342 341
346 348 349 349 350 352 353 353 352 353 352 352 353 352 352 350 351 350 350 348 347 347 346 345 345 345 345 345 344 345 346 346 347 350 350 350 348 347 347 346 347 346 346 346 346 347 347 349 350 349 348 347 347 347 348 349 350 349 350 351 351 351 351 351 349 344 345 345 347 347 347 345 345 345 343 344 344 343 342 341 342 341 341 341 340
345 348 350 349 350 353 353 353 353 353 352 353 353 353 351 350 351 351 349 347 348 348 347 346 346 345 344 344 345 346 345 344 347 349 349 348 347 347 348 347 346 346 346 346 346 346 348 349 349 348 348 347 346 347 349 349 349 349 351 351 351 351 351 351 349 346 343 344 346 347 348 346 345 344 344 343 344 344 343 343 343 342 342 341 341
346 347 349 349 349 353 352 352 353 352 353 353 352 352 351 351 351 350 349 348 348 348 346 347 345 345 345 345 346 345 344 345 346 349 348 347 347 346 346 346 347 347 346 346 346 347 349 349 348 348 348 347 345 347 349 350 349 348 348 349 349 349 349 348 347 342 343 344 347 347 346 345 346 347 343 344 343 344 343 343 342 342 341 341 341
345 347 349 349 351 352 353 352 352 353 352 352 353 352 351 351 351 351 350 349 348 347 347 347 347 346 345 346 347 347 346 346 349 349 347 346 346 346 346 346 346 346 346 346 347 349 349 348 347 348 347 345 345 348 350 349 348 347 346 346 346 344 344 344 342 343 345 346 346 348 346 344 346 343 343 344 344 343 344 343 343 342 342 342 341
344 346 348 349 349 353 352 352 352 353 352 352 352 352 352 352 351 351 350 348 348 348 347 347 347 347 347 347 348 350 349 349 350 349 347 346 346 346 346 346 345 345 346 347 348 349 348 347 347 347 347 345 346 348 349 349 348 347 346 345 345 345 345 344 343 345 345 347 348 348 346 349 347 344 344 345 345 344 344 343 343 342 342 342 341
343 345 347 348 348 353 352 352 352 352 352 352 352 352 351 351 351 350 351 349 349 348 347 346 346 347 347 346 347 349 349 349 350 348 346 347 347 347 346 346 346 346 347 347 348 348 348 346 346 346 346 346 346 348 349 348 347 345 345 345 345 345 345 346 347 344 345 345 349 346 346 349 347 344 343 345 344 344 343 343 343 343 342 342 341
344 344 347 347 350 350 352 352 352 352 352 352 352 352 352 352 351 351 351 350 349 347 346 346 346 346 346 346 346 348 348 348 349 348 347 348 347 347 346 346 346 347 347 347 347 347 347 346 346 346 346 345 347 347 348 347 347 346 345 344 344 344 344 342 343 344 343 344 345 342 344 348 345 344 343 345 344 344 344 343 342 342 341 341 340
345 345 346 348 348 350 351 353 352 352 352 352 352 352 352 351 351 351 350 350 349 348 347 346 346 345 345 345 345 346 347 348 348 348 348 347 346 346 346 346 346 346 347 347 347 347 347 346 346 346 346 345 346 347 348 347 347 347 347 346 346 346 346 347 344 345 346 346 346 345 346 348 344 344 344 345 344 344 343 342 341 341 341 340 340
344 346 343 347 348 349 349 351 351 353 352 352 352 351 351 351 351 351 350 349 349 348 347 346 345 345 344 345 345 345 346 347 347 347 347 346 346 346 345 346 346 346 346 347 347 347 346 346 345 346 346 345 345 346 348 347 347 347 347 346 346 346 346 345 345 348 347 347 345 345 347 346 344 344 343 345 344 342 343 342 342 341 340 339 339
344 345 345 346 347 348 349 349 351 352 352 352 351 351 351 351 351 350 350 349 349 348 347 346 345 344 344 344 344 345 345 345 346 346 346 346 345 345 344 345 345 346 346 346 346 346 346 345 345 346 346 345 345 346 347 347 347 347 347 346 346 345 346 346 347 348 347 346 345 347 347 345 344 344 343 344 342 342 342 341 341 340 339 339 339
345 346 347 347 345 347 348 350 352 350 350 351 352 351 350 350 350 350 350 349 349 347 347 346 345 344 344 343 343 345 345 344 345 345 345 345 345 344 344 344 344 344 345 345 346 346 345 345 345 346 346 345 345 345 346 347 347 347 346 346 346 345 345 348 347 346 347 347 346 347 345 344 343 342 344 343 342 341 341 341 340 339 338 338 337
344 345 346 346 347 347 348 349 350 349 350 351 352 352 351 350 351 350 350 349 348 348 346 346 345 345 345 343 343 344 345 344 344 344 344 344 344 344 344 344 344 344 345 345 345 345 344 344 345 345 345 345 345 345 345 346 346 346 345 345 345 344 347 347 346 346 347 347 346 346 343 343 342 343 343 342 342 341 340 339 338 338 337 336 336
343 344 345 346 348 347 347 348 349 348 349 349 350 350 350 350 350 350 350 349 348 348 347 346 346 345 344 343 342 344 344 344 344 343 343 345 345 344 344 344 344 344 344 344 344 344 344 345 345 345 345 345 344 345 345 346 345 345 344 344 344 345 345 346 346 346 346 346 345 345 342 342 342 341 341 342 341 341 340 339 338 337 336 334 330
340 342 345 346 346 347 345 347 348 347 348 348 348 349 350 350 350 350 350 349 348 348 348 347 346 346 344 343 344 342 343 345 345 344 345 345 344 343 343 344 344 344 344 344 344 344 344 345 345 345 345 344 342 347 345 346 345 344 343 342 344 344 345 345 346 345 344 344 346 343 342 342 341 341 341 341 340 338 337 336 336 336 332 329 329
338 340 342 344 346 346 347 346 345 347 348 346 347 348 348 349 348 349 348 348 348 348 347 347 346 344 344 343 343 343 342 343 345 344 345 344 343 343 342 343 344 344 344 343 344 344 344 343 343 345 343 342 345 347 345 344 345 344 343 344 344 343 343 344 344 344 343 343 344 342 342 341 341 341 340 340 339 337 335 333 332 331 330 328 328
338 340 341 344 344 345 345 346 345 347 345 345 346 347 347 349 348 348 348 348 348 347 346 346 345 344 344 344 343 344 343 343 342 343 343 344 344 343 343 343 344 343 343 345 344 344 341 340 342 343 345 346 346 345 343 343 343 344 345 344 343 343 343 343 342 342 343 342 342 342 341 341 340 340 339 339 337 335 333 331 329 328 327 327 327
339 341 341 342 343 344 345 345 345 346 344 345 345 345 347 346 346 347 347 347 347 346 346 346 346 345 344 344 342 343 342 342 342 343 343 343 343 343 344 344 345 344 343 344 344 342 341 341 347 346 347 346 345 344 343 342 342 343 343 343 342 342 342 342 341 340 341 342 342 341 340 340 339 339 338 337 335 334 332 330 329 328 327 326 326
340 338 339 342 342 343 344 345 345 345 345 344 344 345 346 345 345 346 347 346 346 345 345 344 344 344 343 342 342 341 341 340 341 341 341 342 340 339 341 342 342 343 343 343 343 341 338 345 346 346 346 347 345 344 343 342 341 342 341 341 341 341 340 340 339 339 340 340 340 339 339 339 338 337 337 335 332 331 330 329 328 328 327 326 325
337 338 340 341 343 344 344 345 344 345 344 344 344 344 345 345 345 345 345 344 344 343 342 341 341 342 342 341 339 338 338 338 341 341 340 341 339 340 341 343 342 342 343 343 341 339 340 345 347 346 346 345 343 343 342 342 342 340 340 340 340 339 339 338 338 338 338 337 337 336 335 335 335 335 334 333 331 330 330 329 327 327 326 325 325
338 338 339 340 342 343 344 344 343 344 344 344 344 343 345 344 344 344 344 343 342 341 340 340 341 340 340 339 339 338 337 337 339 339 340 340 340 341 342 342 342 341 342 343 340 341 344 345 346 345 345 345 342 342 342 340 341 341 339 339 338 339 337 336 337 337 336 336 334 333 333 333 333 332 332 331 331 330 329 327 327 327 325 324 324
337 338 339 340 342 342 343 343 344 343 343 343 342 343 344 344 344 343 342 342 341 341 340 339 339 338 339 339 340 338 337 337 338 339 339 339 341 341 341 343 343 341 341 343 344 345 345 347 345 344 345 344 343 342 341 340 340 340 339 337 335 335 333 333 332 331 332 332 332 331 331 331 331 331 330 330 330 329 328 328 327 326 326 325 324
338 339 340 340 342 342 342 342 343 343 343 343 342 342 343 343 342 341 342 342 340 340 339 337 337 335 336 339 340 339 339 339 339 340 339 340 341 342 341 342 342 342 342 342 346 346 346 346 345 344 343 343 342 341 340 340 339 339 338 334 330 329 329 327 328 327 329 331 330 330 330 330 329 329 328 328 328 328 328 327 326 326 326 325 324
340 339 340 340 342 342 342 342 343 344 343 341 342 342 343 342 341 341 342 340 340 338 337 337 336 337 338 340 341 341 341 342 342 341 341 343 343 342 342 342 342 342 343 343 345 346 346 345 345 344 345 343 342 341 339 339 338 337 333 329 327 327 326 327 326 325 325 328 328 328 328 328 328 327 327 327 327 327 326 326 325 325 325 325 324
339 339 340 341 341 342 342 342 342 343 343 341 342 341 342 342 341 341 341 341 340 337 337 337 336 337 340 341 342 343 343 342 342 341 342 343 342 342 343 342 341 342 342 345 345 345 345 344 344 346 346 345 342 340 340 338 335 331 328 325 325 326 325 325 324 324 324 325 326 327 327 327 327 327 326 326 326 325 326 326 325 325 324 324 323
341 342 341 341 341 342 342 343 344 343 342 340 340 341 342 341 341 341 340 340 339 339 337 338 338 340 342 342 344 344 344 342 343 344 345 345 345 343 343 343 344 343 344 344 344 344 344 343 342 345 344 343 340 339 337 335 331 328 327 326 326 323 323 324 324 323 323 324 323 324 326 327 326 325 324 324 324 324 324 324 324 324 324 323 323
340 340 342 340 341 342 342 342 343 342 341 341 342 341 342 341 341 340 340 339 340 339 340 340 339 339 341 342 343 344 343 345 343 344 346 344 345 344 343 343 344 344 343 343 343 343 344 340 340 342 340 340 338 337 334 331 329 328 327 326 326 325 324 323 323 322 322 322 322 322 321 324 325 325 322 322 321 321 322 323 323 323 323 323 323
340 340 340 341 341 341 342 342 343 343 341 341 341 341 342 341 340 340 340 339 339 340 339 339 337 338 341 343 344 345 344 344 344 345 343 344 344 344 343 344 343 343 342 344 344 345 343 339 339 340 339 339 337 336 332 330 327 327 327 326 324 323 323 322 322 321 320 322 322 321 321 321 322 325 324 321 320 319 319 320 320 320 320 320 320
339 340 342 342 341 342 342 342 343 342 342 342 342 342 341 342 342 341 341 341 340 341 339 337 335 337 342 344 345 346 344 345 344 344 344 344 344 344 345 343 342 342 342 343 344 342 341 339 340 341 336 336 335 332 331 328 327 326 326 325 324 323 322 321 320 318 319 320 320 321 321 320 322 322 322 322 322 319 317 317 317 317 317 317 318
340 341 341 342 342 341 341 341 342 342 342 342 342 342 342 341 342 342 341 341 340 340 339 337 336 339 344 344 345 346 345 344 344 345 345 345 344 344 343 342 342 343 343 344 343 342 339 337 338 340 340 335 332 329 328 327 326 325 324 323 323 323 321 320 319 319 318 318 318 317 318 318 319 319 322 321 322 320 316 315 316 315 315 315 316
341 342 342 342 342 341 341 341 342 343 343 342 342 342 341 342 342 342 342 340 340 341 339 336 335 339 342 344 345 346 346 344 344 345 346 346 344 343 341 341 342 343 343 343 343 341 339 338 336 338 338 335 331 328 326 325 324 323 322 322 322 322 321 320 319 317 315 314 316 315 317 318 317 316 317 319 319 319 316 315 314 313 313 314 314
341 341 342 343 344 343 342 341 342 342 342 342 343 342 342 342 343 341 339 339 341 340 339 336 335 339 341 344 345 346 346 345 344 345 345 344 342 341 340 341 342 342 343 342 341 338 337 336 335 334 336 336 332 329 326 324 322 321 319 321 322 322 321 320 318 316 314 313 313 313 314 316 315 315 316 316 314 313 314 315 314 314 312 312 312
340 340 341 342 344 343 343 342 342 342 342 342 341 340 340 339 337 337 337 337 339 338 338 335 340 337 340 343 345 346 345 345 344 345 344 343 341 340 340 340 341 342 342 340 338 336 335 334 333 332 331 329 330 327 325 322 320 319 319 319 320 320 317 318 315 313 314 315 314 314 313 314 315 315 315 314 313 312 312 313 313 312 313 312 315
340 340 338 339 342 342 342 340 342 343 341 340 339 338 337 337 339 336 335 337 337 339 337 338 337 338 341 343 345 345 345 344 344 343 343 342 341 341 339 340 341 342 342 341 340 337 336 334 331 332 329 325 324 325 324 322 318 316 318 318 318 319 318 316 313 312 312 313 314 313 313 314 314 313 312 314 311 311 312 311 311 311 311 311 310
338 339 338 339 341 343 342 342 343 342 342 341 340 340 339 339 338 337 337 337 336 337 337 337 339 341 343 344 345 345 344 343 343 343 343 342 340 339 339 339 340 341 342 343 339 336 334 332 330 328 329 326 324 324 323 323 319 316 312 311 312 313 315 315 311 310 311 312 313 314 314 312 311 312 313 311 311 309 309 311 312 311 310 311 311
339 339 339 340 341 342 343 343 343 342 342 343 341 339 341 342 341 340 338 338 340 342 341 340 341 341 344 344 345 344 343 342 343 343 342 342 341 340 340 340 341 341 340 340 337 334 332 330 330 328 325 326 324 324 324 327 320 319 317 312 308 308 310 310 313 311 311 313 312 310 310 309 308 309 311 312 310 310 309 310 310 311 312 311 311
339 339 340 339 340 341 343 343 342 342 344 343 342 344 343 343 343 344 343 341 339 341 343 343 343 343 342 344 344 344 342 343 343 343 343 342 342 341 341 340 341 342 341 339 336 333 332 330 330 329 327 322 320 319 323 323 321 316 311 314 311 311 308 307 309 310 312 311 310 309 309 308 308 309 310 309 309 311 311 311 311 312 313 312 312
338 338 339 339 340 341 343 344 343 342 344 343 343 344 343 341 341 342 343 341 341 340 338 337 338 339 341 340 340 341 342 342 343 343 343 342 342 342 341 341 341 341 342 340 336 334 332 330 330 329 328 325 320 319 319 324 321 325 319 310 308 308 312 313 310 310 310 309 309 310 310 309 308 308 308 308 309 311 310 309 312 313 314 313 313
337 338 340 340 341 341 342 343 343 343 343 343 344 343 341 339 337 335 334 334 335 333 333 333 334 335 336 339 341 340 341 342 342 342 343 342 341 342 342 342 341 340 340 340 338 334 332 330 330 329 329 329 324 319 318 324 322 324 324 328 325 318 315 311 309 306 311 312 311 310 310 310 310 309 308 308 307 308 310 310 312 312 313 313 310
337 339 340 340 341 341 342 343 343 343 343 343 343 342 341 339 339 338 337 336 335 336 339 340 337 337 339 338 339 340 341 341 341 341 342 342 342 342 342 342 342 342 342 341 338 335 332 331 330 329 329 328 326 321 320 320 321 322 322 325 325 323 319 311 309 310 304 308 309 309 310 311 310 309 307 306 307 309 310 310 310 308 311 311 311
337 339 339 339 340 341 342 342 343 343 343 343 342 342 340 339 339 339 339 338 339 338 337 339 341 339 338 338 338 338 340 341 340 340 341 341 342 341 342 342 341 341 340 339 338 336 333 332 331 331 330 327 327 325 322 322 317 316 321 322 321 320 320 318 318 313 312 307 305 308 310 311 311 311 309 307 306 308 310 311 309 308 308 308 310
337 338 338 339 340 342 342 343 342 343 343 344 342 341 341 340 340 339 339 339 341 341 340 340 339 338 338 338 337 337 338 340 340 340 341 341 341 341 341 341 340 340 339 339 340 337 334 332 330 329 329 328 328 329 325 322 323 321 320 321 319 317 314 317 317 317 312 312 308 305 305 309 311 312 312 310 309 310 310 310 309 307 311 311 310
339 340 340 340 341 341 341 341 341 342 343 343 342 341 341 340 339 340 339 339 339 340 340 337 336 337 335 335 336 335 336 337 339 340 340 341 341 341 341 340 341 340 338 338 338 336 334 333 331 330 330 329 328 328 326 326 326 326 323 322 318 315 314 312 312 312 312 314 312 306 308 305 304 307 312 309 309 309 310 310 309 307 309 310 310
340 340 340 339 340 340 341 340 341 342 343 342 342 340 340 340 339 340 339 339 339 338 336 335 335 334 334 334 334 334 335 336 337 338 339 340 341 341 340 340 340 339 337 337 337 336 335 334 333 331 330 329 328 328 328 330 328 327 324 323 321 318 317 316 315 313 315 312 311 310 308 306 305 306 308 310 310 308 307 309 308 309 310 310 309
Wind_Speed
12 14 13 15 15 16 16 17 16 14 14 13 14 13 12 12 11 12 12 12 11 11 11 11 12 12 13 13 13 13 13 12 13 13 13 12 13 13 14 15 15 15 15 16 16 15 15 14 15 14 14 13 13 12 12 11 11 10 9 10 9 10 10 10 10 10 10 10 9 9 9 10 11 11 11 11 11 12 12 11 8 10 10 11 13
16 14 12 15 14 15 16 17 16 15 14 14 14 14 13 12 12 12 12 11 12 11 11 11 11 11 11 12 13 13 12 12 12 12 12 12 14 14 14 14 15 15 15 16 15 15 14 14 14 13 13 12 12 11 11 10 9 8 7 8 9 9 9 9 9 10 9 9 9 8 9 10 10 10 11 10 10 11 11 11 11 9 9 12 12
15 15 13 16 16 17 16 16 17 16 14 14 15 15 13 12 12 12 12 12 12 12 11 11 11 11 11 12 12 12 12 11 11 11 12 13 14 15 15 14 15 15 15 15 15 14 14 13 13 13 12 11 10 10 10 9 7 6 6 6 6 7 8 8 8 8 9 9 8 8 8 9 9 9 10 10 11 11 11 11 11 11 9 11 11
17 14 14 16 17 15 15 16 17 16 15 15 15 14 13 13 12 12 12 11 11 10 10 10 11 11 11 11 12 12 12 12 11 12 13 13 13 15 15 14 14 15 16 15 14 14 13 13 13 12 11 11 10 10 10 9 7 5 5 5 5 6 7 7 7 7 8 8 7 3 5 7 8 10 10 9 10 10 10 10 11 12 11 11 11
16 15 14 15 16 15 15 16 16 16 16 15 15 15 14 12 12 12 12 12 11 11 11 10 10 11 11 11 12 12 12 12 12 14 13 14 13 15 15 15 15 15 16 15 14 13 13 13 12 11 11 11 11 11 10 8 7 5 4 3 5 6 7 8 8 8 8 7 5 1 5 7 7 9 8 9 9 10 10 10 11 11 10 10 11
16 15 14 15 15 16 15 17 17 17 16 16 16 16 14 13 13 12 12 11 11 11 10 10 11 11 12 12 12 12 12 12 14 14 14 13 12 14 15 15 15 15 16 15 14 13 13 13 12 11 11 11 12 11 9 7 6 4 3 1 3 7 8 8 8 8 8 7 3 3 5 6 6 6 8 9 9 9 9 10 10 10 10 9 8
17 13 14 14 13 15 16 16 18 17 16 16 16 16 15 14 13 13 13 13 12 11 11 11 11 12 13 13 13 12 12 11 13 14 14 13 13 14 15 15 15 15 16 15 14 13 13 13 12 12 12 12 11 10 8 7 6 5 4 3 5 7 9 9 8 8 7 4 3 3 4 6 6 5 8 8 9 9 8 9 9 9 9 9 8
13 12 14 14 13 16 17 18 18 17 17 17 16 16 15 14 13 13 13 13 12 12 12 13 12 11 12 12 12 12 10 10 11 12 13 13 13 13 14 14 15 15 15 14 14 14 13 12 12 12 12 12 11 9 8 8 7 7 6 7 9 10 10 9 9 8 5 3 3 3 4 5 6 6 7 8 8 9 9 8 8 9 9 9 7
14 14 14 13 13 19 17 17 17 18 18 17 17 17 16 14 13 13 13 12 12 12 12 13 13 13 12 12 11 10 8 12 12 15 15 14 13 13 13 14 14 14 13 13 13 12 12 12 12 12 12 12 11 9 9 8 8 9 10 11 12 11 11 10 10 9 4 3 3 4 3 5 5 6 7 7 7 8 7 6 8 8 9 9 8
15 13 13 12 13 19 16 16 16 18 17 18 18 17 16 15 14 13 13 13 12 13 12 13 13 13 13 11 11 10 11 12 11 13 13 13 13 13 13 13 14 15 13 13 13 12 12 12 12 12 12 11 10 10 9 8 10 11 12 13 13 12 11 10 10 4 4 4 5 4 4 4 5 6 7 4 6 8 8 10 10 9 9 9 10
16 13 13 12 16 17 15 16 16 17 17 18 18 17 16 16 14 14 13 13 12 12 13 13 13 13 12 11 10 10 11 11 10 12 12 12 13 13 14 14 14 13 13 13 13 13 13 12 12 11 11 11 10 10 10 10 10 12 13 13 13 12 10 10 7 5 4 5 4 4 5 1 4 5 6 6 6 8 9 11 10 9 9 9 10
15 13 12 11 15 15 15 16 17 16 17 17 18 18 16 16 15 14 14 13 12 12 13 13 13 12 12 10 10 10 12 12 12 11 11 13 13 14 14 14 13 12 12 12 12 12 12 12 11 11 11 11 10 10 10 10 11 12 13 13 13 12 10 6 4 5 5 4 5 3 4 4 6 8 6 7 9 8 11 11 11 11 12 12 12
14 13 12 11 14 15 15 15 16 15 17 17 16 17 16 16 16 15 15 14 13 12 13 12 12 11 11 11 10 9 10 12 13 13 12 13 13 13 13 13 13 11 11 11 12 12 12 12 11 11 12 11 11 10 10 11 11 12 12 12 12 11 9 6 5 5 5 4 4 3 4 5 6 8 6 8 10 11 12 13 13 13 13 13 13
15 14 11 11 11 16 16 14 14 15 17 16 16 16 15 15 15 15 15 14 14 12 12 12 12 12 11 10 11 11 10 11 12 12 13 13 13 12 12 13 12 10 10 11 12 12 12 12 11 11 11 11 10 10 11 11 12 12 12 11 11 11 10 5 5 5 5 5 4 4 5 5 7 6 8 10 11 12 13 13 15 15 15 15 15
16 16 14 12 11 14 18 14 13 14 14 14 14 14 14 13 13 13 13 14 14 13 12 12 12 11 11 10 10 12 12 13 13 10 13 14 13 12 12 12 11 9 9 10 11 12 12 11 11 11 11 10 9 10 11 11 11 11 11 11 10 8 5 6 4 5 5 4 4 3 6 6 8 9 9 11 12 14 15 16 16 16 16 15 16
14 14 15 12 12 13 14 16 15 13 13 13 13 14 13 13 12 13 13 14 14 13 12 11 12 11 11 9 10 10 11 12 11 11 11 12 12 12 12 11 10 9 9 10 11 11 11 11 10 10 10 10 10 10 10 11 12 11 11 11 10 8 5 4 5 4 4 4 4 4 6 7 8 9 10 13 14 15 16 16 17 16 15 15 15
13 14 14 13 14 13 13 14 15 15 13 14 14 14 14 13 12 13 14 16 15 14 13 12 12 11 10 10 10 9 10 10 11 11 11 12 12 11 11 11 9 8 8 9 10 10 11 10 10 10 10 10 10 9 10 11 12 11 11 11 11 9 7 4 5 4 4 4 4 5 5 6 10 10 13 15 15 15 17 16 16 16 15 15 15
12 13 13 13 14 14 12 13 14 14 13 14 15 15 15 14 12 13 15 15 14 14 13 12 12 12 11 10 11 10 10 10 10 10 10 10 10 10 10 10 9 8 8 9 9 10 10 9 9 10 10 10 9 9 10 11 11 11 10 10 11 11 9 5 5 4 5 4 5 6 7 11 12 13 14 16 15 16 16 16 16 15 15 15 15
11 12 12 13 14 13 12 12 12 13 13 11 11 13 16 15 13 15 16 15 14 14 14 12 12 11 11 10 10 10 6 11 11 10 9 10 10 10 9 8 7 7 8 8 9 9 9 9 9 9 10 9 9 9 10 11 11 11 12 12 12 10 8 4 5 5 5 4 5 7 9 11 12 14 15 16 16 15 16 15 15 15 15 15 15
9 11 12 12 12 12 12 11 12 13 12 11 11 12 14 16 14 15 16 16 16 15 13 12 12 11 11 10 10 10 9 10 11 9 10 9 9 8 9 8 6 7 7 8 8 8 8 8 8 8 9 9 9 10 12 12 10 11 12 12 11 8 5 5 5 5 5 6 7 8 11 12 13 13 14 15 15 15 15 15 15 15 15 16 16
8 10 11 12 12 13 14 11 12 13 13 12 10 12 12 15 14 14 16 16 15 15 14 13 12 12 11 10 9 9 8 7 9 7 10 8 9 9 8 7 6 6 6 6 7 7 7 7 7 8 8 8 8 10 12 12 12 12 12 11 9 6 5 5 4 4 5 6 7 8 12 12 13 14 14 16 16 17 16 16 16 16 17 16 15
10 10 11 12 12 12 14 13 11 14 12 10 9 9 11 13 12 12 12 13 14 14 12 10 10 8 10 8 6 8 7 7 7 7 6 8 8 8 8 7 6 6 5 5 6 5 6 6 6 8 9 7 6 7 9 11 12 11 11 9 6 6 5 5 5 5 6 6 7 9 11 12 12 13 14 15 16 16 16 16 16 16 16 14 15
10 10 10 13 11 12 13 13 13 13 13 11 9 9 11 10 11 11 10 12 11 11 10 9 8 8 7 7 6 5 7 7 7 6 5 5 6 7 7 7 6 5 4 4 4 5 5 5 6 8 9 7 5 6 7 7 8 11 9 6 6 6 6 5 5 5 6 7 7 12 11 11 12 13 14 15 15 16 16 16 15 15 15 15 15
11 10 10 11 12 12 13 13 12 13 12 10 9 9 10 10 9 10 9 9 9 9 9 8 7 7 7 7 6 6 7 6 8 7 6 6 6 6 6 6 6 5 3 3 4 4 2 4 6 6 6 4 5 5 6 6 6 5 5 6 6 7 6 5 5 5 6 8 8 12 12 12 13 13 13 15 16 16 16 16 16 15 14 14 14
10 10 9 11 13 13 12 13 12 12 13 10 10 10 10 9 9 9 9 8 8 8 8 8 8 8 8 6 7 7 7 6 7 6 6 6 6 5 6 5 5 5 3 2 1 2 1 3 5 5 5 5 5 6 6 6 6 6 5 6 6 6 6 5 5 5 6 7 9 12 12 12 13 14 15 15 16 17 16 15 15 15 14 14 14
9 9 10 11 13 13 13 12 12 12 12 10 10 10 11 10 10 10 8 8 8 8 7 7 7 8 7 7 7 7 7 7 7 7 6 5 6 5 5 5 5 3 2 2 1 1 2 3 5 5 5 5 5 6 6 7 7 6 6 6 6 6 5 5 5 5 6 6 9 12 12 13 13 14 14 15 15 16 15 15 14 14 14 14 14
10 10 9 10 11 13 13 12 12 11 13 12 10 10 10 9 9 9 9 8 8 8 7 7 7 7 7 7 7 7 7 7 7 7 6 5 5 4 4 3 3 3 2 1 1 1 1 3 3 4 4 5 7 7 7 7 6 7 7 7 6 6 6 5 6 5 6 7 9 13 12 11 11 13 14 15 15 15 14 14 14 14 14 13 14
10 11 11 11 11 14 14 13 12 12 11 12 11 10 10 9 10 9 9 8 9 8 7 7 6 7 7 7 6 6 6 7 7 7 6 5 4 4 3 3 3 3 2 1 1 1 2 3 3 4 5 6 7 7 7 7 7 7 8 7 7 6 6 6 5 6 6 6 7 11 12 12 12 12 13 14 14 14 14 12 13 14 14 13 13
12 12 12 12 14 13 14 14 13 13 11 11 11 10 10 9 9 10 10 8 8 7 6 7 6 6 7 7 7 6 6 6 7 7 6 6 5 4 3 2 3 3 3 2 2 3 3 3 3 3 5 6 6 7 7 7 7 7 7 7 7 7 6 6 6 6 6 6 7 9 12 13 12 13 12 12 12 13 13 13 13 12 13 14 14
12 13 12 12 13 14 14 15 14 12 12 11 10 11 10 10 11 11 9 8 8 7 8 7 6 6 6 7 7 6 6 6 6 6 6 6 6 5 4 3 3 3 3 2 3 3 3 3 3 4 6 7 7 7 7 7 7 7 7 7 7 7 6 6 5 6 6 6 7 8 12 12 12 12 12 13 13 13 13 12 12 12 13 13 14
14 14 13 12 12 13 14 15 14 13 12 12 11 11 10 11 11 10 9 10 8 8 8 7 6 6 6 8 7 6 6 5 5 5 4 4 5 5 4 4 3 3 3 3 3 2 2 2 4 5 6 6 7 7 7 8 7 7 7 7 7 6 6 5 5 6 6 6 6 7 9 12 12 11 11 11 12 13 13 13 12 12 13 13 13
15 16 13 13 13 15 14 15 15 13 13 13 11 11 11 11 10 9 9 9 9 8 8 7 6 6 7 8 7 6 6 5 6 5 5 5 5 5 5 4 4 4 4 4 4 3 2 2 3 5 6 6 7 7 7 8 7 7 8 8 7 6 6 5 5 6 6 6 5 5 6 8 11 11 10 11 10 11 12 13 12 13 13 13 12
11 14 15 14 15 15 14 15 14 14 13 13 12 11 11 11 10 10 9 8 9 8 7 6 6 6 6 7 7 7 6 6 6 6 6 5 5 5 5 5 5 5 5 5 5 4 3 3 3 5 7 7 7 8 8 6 7 7 7 7 6 6 6 5 5 6 6 5 5 5 5 6 9 11 12 11 11 10 11 12 12 12 12 12 11
12 13 13 15 13 11 11 12 13 14 14 12 11 10 11 10 9 9 8 9 8 8 6 5 6 6 6 7 7 7 7 6 6 6 5 5 5 5 5 5 5 6 5 5 5 5 4 4 5 6 8 8 8 8 7 7 6 6 6 7 6 5 5 5 5 5 5 5 5 5 5 5 5 6 8 12 11 11 10 10 11 11 11 10 10
10 13 17 17 17 14 12 11 13 15 14 14 13 12 10 10 10 9 9 9 9 7 6 5 6 6 6 6 7 6 7 7 7 6 5 5 5 5 5 5 5 6 5 5 5 5 5 6 6 7 8 7 8 8 7 7 8 7 7 6 6 5 5 5 5 5 5 5 4 5 4 4 4 5 5 6 9 10 10 10 9 9 9 9 9
13 15 14 14 16 15 14 14 14 15 14 14 13 12 10 10 9 9 8 10 8 6 6 6 6 6 6 6 7 6 7 7 7 6 6 6 6 5 5 5 6 5 5 5 5 5 5 5 5 7 9 8 9 7 6 7 7 8 6 5 5 5 5 5 5 5 5 4 4 4 4 4 4 4 4 4 5 7 9 9 8 8 8 8 9
14 14 14 15 15 17 15 16 15 16 15 15 14 13 11 11 10 8 9 9 7 6 6 6 6 6 6 6 6 6 7 7 7 7 6 6 6 5 5 6 6 6 6 6 6 5 6 5 5 5 7 9 8 9 7 7 7 7 6 6 5 5 5 5 5 5 4 4 5 4 4 4 5 5 4 4 4 5 7 7 8 8 8 8 8
13 13 14 16 16 16 15 15 15 15 14 13 13 12 10 10 8 7 7 8 8 5 6 6 6 6 6 6 6 6 6 7 7 7 6 5 5 5 6 7 6 6 6 6 5 5 5 6 6 5 5 8 8 8 8 7 7 6 6 5 4 4 4 5 5 5 4 5 4 4 4 4 4 4 4 4 4 4 5 7 8 8 7 7 7
12 14 12 11 12 14 13 15 14 15 14 13 13 12 11 9 7 7 8 8 6 5 6 6 6 6 6 7 7 6 6 7 7 7 6 5 5 5 6 7 7 6 6 7 6 6 5 5 7 6 4 5 7 8 9 8 7 6 6 5 4 4 4 4 4 4 4 4 5 5 4 4 4 4 4 4 4 4 4 4 4 5 6 7 7
12 12 12 11 11 13 13 13 14 14 13 12 11 10 9 9 9 8 7 8 7 6 6 6 6 6 7 7 7 6 6 7 8 7 7 6 6 7 7 7 7 7 7 8 6 6 7 7 7 9 8 6 6 7 8 9 8 7 7 5 4 3 5 4 4 5 4 4 5 5 5 5 4 4 4 4 4 4 4 4 3 3 4 4 3
13 13 13 13 13 13 14 15 13 14 13 12 11 11 11 10 9 9 9 8 9 6 6 6 7 7 8 7 7 6 7 7 8 8 7 7 6 6 7 7 7 7 7 8 7 8 7 7 7 6 10 9 7 8 8 9 10 7 5 5 4 3 4 3 4 4 5 4 4 5 4 4 5 5 4 3 4 4 4 4 4 3 3 3 3
14 15 16 15 13 13 15 13 12 14 14 13 12 11 11 10 10 10 9 8 9 7 7 6 7 6 7 7 7 7 7 8 8 8 8 8 7 7 7 7 7 7 7 6 7 7 8 7 8 7 5 9 8 10 9 10 6 8 9 6 3 3 2 2 3 5 5 5 5 5 5 5 5 5 4 4 4 5 4 4 3 2 2 2 2
16 16 15 14 14 13 12 13 12 14 14 13 12 12 11 10 10 8 9 7 7 4 5 5 6 6 7 7 7 7 8 9 9 9 8 8 8 7 7 7 8 8 8 7 7 8 8 10 10 9 8 4 6 7 9 5 6 6 6 7 5 5 3 3 4 5 5 5 5 6 6 6 6 5 5 4 4 4 4 3 3 2 2 1 1
12 13 14 16 13 12 12 13 14 14 11 12 14 12 12 12 9 5 6 5 6 5 5 5 6 7 7 7 6 7 9 8 10 9 8 8 8 8 8 8 8 9 9 8 8 8 8 9 8 8 10 9 7 8 7 2 6 11 7 3 5 4 5 7 7 6 6 6 7 6 6 5 6 6 4 5 5 4 3 3 3 3 2 1 0
14 16 15 15 12 16 14 14 14 15 12 13 15 13 11 10 7 4 5 5 3 6 6 7 8 8 7 8 8 9 10 9 9 10 9 9 8 8 8 8 8 9 8 8 8 9 10 9 9 9 10 10 9 7 6 3 6 3 5 6 3 4 5 4 8 5 6 7 8 8 6 6 6 6 5 5 4 4 3 4 3 3 3 2 1
14 15 16 16 14 12 13 13 12 13 14 16 16 14 13 12 11 11 10 11 9 12 12 12 11 10 11 9 9 10 10 10 9 10 9 8 9 9 9 9 9 9 8 8 7 7 9 10 10 9 9 8 10 9 8 4 6 2 2 2 1 2 4 6 7 5 6 6 6 8 7 8 6 6 5 5 5 4 3 3 3 4 3 2 1
16 14 13 14 15 14 15 15 13 13 14 16 17 14 14 13 15 12 9 10 10 9 8 8 10 10 9 10 9 9 10 10 10 9 9 9 8 9 9 8 8 8 7 7 7 9 9 10 8 8 7 6 7 10 11 8 4 4 3 1 2 1 5 8 6 4 5 6 6 7 8 8 7 7 6 5 5 4 3 2 3 3 4 3 2
17 12 13 14 17 17 17 16 12 12 14 16 17 16 15 15 15 11 10 10 9 9 10 9 7 8 9 9 9 9 10 10 9 9 9 9 9 9 9 9 9 8 7 7 7 7 7 6 7 7 5 7 9 8 9 8 10 8 6 4 2 2 5 0 5 6 4 6 7 6 5 6 6 6 5 4 5 4 4 3 4 4 3 3 3
12 13 15 15 16 15 15 14 14 13 14 16 17 18 17 16 14 11 10 8 8 6 7 7 7 9 9 9 9 9 9 9 9 9 9 10 9 9 10 10 9 9 7 7 6 7 9 8 8 7 8 7 7 5 7 8 8 7 8 5 3 4 4 1 3 3 3 4 5 8 7 5 4 5 4 4 3 3 3 3 3 3 4 4 4
12 13 11 9 11 13 15 17 16 14 13 16 16 20 20 16 13 12 12 10 8 7 7 9 10 10 10 10 9 9 9 8 9 9 9 10 10 9 8 9 8 8 7 8 7 8 8 8 9 9 9 8 6 6 8 7 8 6 8 6 6 4 4 3 4 5 1 4 3 6 8 9 8 7 5 5 5 4 3 4 4 3 4 4 3
7 9 10 13 14 15 16 17 18 14 15 17 17 21 19 18 15 13 14 12 11 10 9 10 10 10 10 11 10 9 9 9 8 8 9 10 10 8 8 8 7 7 7 7 8 8 8 8 7 8 8 9 7 7 6 6 6 6 8 7 8 8 7 7 7 7 6 4 4 4 5 7 7 7 6 4 4 4 4 4 4 4 4 3 3
Wind_Direction
179 161 166 158 166 160 159 156 154 153 149 151 146 143 141 134 131 127 123 121 116 112 111 113 116 120 124 125 125 124 124 124 126 127 129 131 126 123 124 124 119 113 109 105 103 98 99 99 97 96 97 96 93 88 86 84 82 83 84 85 87 87 87 82 79 77 78 78 75 74 72 73 73 72 69 70 65 59 58 53 32 61 47 53 50
164 161 165 163 163 160 159 155 152 152 155 155 149 146 141 136 133 131 124 118 120 121 120 118 118 120 125 129 130 130 127 128 129 131 136 134 128 128 125 123 120 117 112 107 104 102 102 101 101 99 97 94 90 88 87 87 86 88 88 88 88 93 91 88 80 78 75 76 76 77 75 72 72 75 75 73 71 65 59 53 33 41 56 55 54
153 158 165 163 161 160 158 156 155 153 160 156 151 146 141 137 135 129 121 119 120 120 123 126 128 130 135 138 140 141 136 132 133 137 136 128 134 130 124 121 121 120 115 110 108 105 102 102 102 101 97 94 90 88 82 78 79 81 88 92 95 99 99 95 94 91 88 78 73 78 84 77 72 73 74 77 72 69 65 62 55 49 60 56 54
153 161 165 159 162 158 157 157 157 153 159 157 153 147 140 141 136 129 121 119 116 115 117 123 127 131 136 141 145 145 141 137 140 137 126 126 129 125 121 121 120 119 116 115 111 105 103 103 101 99 94 88 84 78 75 73 72 74 86 99 110 114 113 107 104 97 92 86 71 66 80 83 85 70 74 75 72 68 66 67 66 64 65 58 56
154 159 162 162 163 157 158 158 158 157 159 160 155 147 141 140 137 131 125 122 120 120 121 125 131 133 137 142 146 147 142 141 144 133 131 131 133 123 125 123 122 122 121 117 111 107 105 101 99 97 90 83 76 71 66 64 60 52 59 93 120 135 135 123 115 110 100 91 79 110 78 78 84 79 75 78 75 69 63 61 63 62 61 59 52
156 161 160 163 163 158 161 161 160 158 159 162 157 148 143 141 139 134 128 125 124 122 124 130 136 140 141 143 146 146 143 146 144 133 131 134 137 126 123 123 123 124 121 115 111 109 105 102 100 94 86 78 72 67 62 59 53 48 50 83 142 146 148 138 123 113 106 94 125 84 79 80 82 91 86 84 80 75 68 64 66 65 63 56 59
155 158 161 163 162 161 161 162 161 158 161 163 159 147 144 144 142 139 135 132 129 128 129 133 138 142 139 138 143 147 145 149 145 134 135 140 129 124 123 126 127 126 120 118 113 109 105 102 96 89 82 76 69 65 59 54 48 47 62 104 129 145 152 145 130 120 120 148 89 86 79 76 81 85 85 86 80 78 73 69 67 68 69 61 42
155 159 163 164 165 158 160 163 161 160 163 163 158 150 147 145 144 143 138 136 134 133 132 133 136 138 138 136 135 137 142 155 145 132 135 129 126 124 125 127 126 123 120 116 114 110 105 99 93 86 80 75 70 64 57 51 49 55 74 107 119 133 145 147 137 124 137 114 100 84 79 72 77 88 89 85 81 79 77 71 66 69 67 62 48
158 163 162 163 165 157 162 163 161 162 164 163 158 153 149 147 149 146 141 138 136 134 134 135 138 143 141 139 142 144 150 149 130 121 129 124 124 121 124 126 126 120 114 110 108 107 103 97 90 85 80 75 71 65 57 53 57 66 91 109 116 125 138 144 135 135 154 107 112 92 79 78 74 77 76 74 77 78 74 79 99 78 63 54 57
158 162 163 165 167 163 164 162 162 164 164 163 161 155 150 149 152 148 143 142 139 134 135 138 142 142 143 146 146 146 142 141 122 121 123 124 126 123 123 128 123 116 112 109 111 109 103 95 90 86 80 75 70 64 57 55 66 79 95 102 110 123 132 140 134 151 104 121 106 88 63 26 72 82 91 81 88 92 76 54 47 46 49 52 49
157 162 164 164 167 162 165 163 164 164 164 164 163 153 152 151 153 151 147 144 141 138 139 141 141 141 143 145 143 140 141 138 129 126 127 128 130 129 127 121 116 115 115 116 114 108 100 92 89 86 82 77 72 66 63 63 71 83 94 98 105 110 113 122 157 127 121 109 103 107 116 182 64 78 110 84 61 75 69 62 59 60 58 57 55
155 162 163 164 162 161 165 166 165 164 166 166 162 154 155 156 157 154 152 146 144 142 140 143 137 140 141 138 143 153 147 142 131 130 138 133 133 129 125 121 120 111 110 112 111 102 95 93 91 88 85 79 72 67 66 72 74 83 89 93 96 104 114 133 129 112 118 113 103 90 92 84 60 65 60 66 70 68 72 70 66 65 66 63 61
154 160 161 163 166 161 167 167 166 166 167 165 163 157 158 161 161 157 153 149 148 142 140 143 141 135 132 136 131 148 149 146 140 141 137 132 129 126 125 124 119 112 107 108 102 97 95 94 92 88 85 81 74 70 70 77 83 84 86 92 95 98 101 120 116 114 111 104 99 100 76 60 68 78 71 76 74 73 72 70 72 71 69 69 67
154 160 159 165 165 164 168 168 168 168 167 165 164 159 160 164 164 159 153 152 148 143 139 138 141 140 135 136 129 128 138 141 140 147 138 130 130 125 122 119 116 111 106 103 98 96 95 95 92 87 84 80 74 73 76 85 91 89 88 92 98 103 110 110 101 106 105 101 87 71 67 66 61 80 85 83 85 79 76 76 74 74 75 74 73
157 161 162 165 163 168 168 168 168 169 168 164 160 160 159 161 160 155 153 151 146 143 142 138 138 143 143 140 138 131 136 138 142 138 134 137 135 126 125 124 117 112 106 101 98 97 96 94 92 89 85 81 75 75 82 90 93 94 94 94 97 101 123 115 108 105 103 96 92 86 74 73 69 68 77 88 83 83 82 81 80 78 76 75 72
156 159 162 167 164 167 170 169 170 169 166 163 159 160 157 159 159 158 157 150 144 145 144 140 138 138 143 145 148 146 137 138 139 136 133 137 136 132 130 125 122 116 107 98 97 98 98 96 93 90 86 82 79 78 88 97 96 97 96 97 97 94 85 93 103 104 101 100 92 75 75 75 81 85 86 89 91 91 88 86 82 77 75 73 69
159 161 164 168 168 168 171 172 173 167 167 163 164 161 159 160 160 159 156 147 146 147 145 143 138 137 141 146 152 152 149 142 139 140 143 140 135 133 131 127 123 117 106 98 95 97 98 97 94 90 86 83 82 81 95 104 101 101 101 101 100 94 89 79 93 86 78 76 71 69 71 81 85 87 92 91 91 90 88 82 80 76 72 69 68
162 166 168 170 173 171 172 172 173 173 172 168 167 164 163 161 160 159 155 149 148 149 149 146 141 138 139 147 155 155 157 154 149 146 146 142 137 135 131 128 122 113 106 98 96 96 97 95 91 88 87 87 85 88 105 111 109 106 106 102 98 94 90 88 90 86 79 72 71 72 76 80 88 93 94 93 92 88 84 80 77 75 71 68 66
166 172 172 171 175 173 173 173 178 176 173 176 173 169 167 162 161 164 155 151 151 152 153 152 146 143 141 146 158 156 162 164 156 157 153 146 144 140 134 126 123 116 106 99 97 94 94 90 87 85 89 90 90 95 113 116 111 109 106 103 102 97 95 94 85 86 85 73 73 79 82 86 93 92 92 91 88 84 80 78 75 73 70 68 66
176 178 177 179 176 174 175 176 180 178 176 176 175 168 168 165 167 166 159 155 155 156 156 155 153 150 145 147 156 160 168 160 163 162 160 156 156 147 133 125 122 119 104 100 96 93 90 87 84 86 90 90 90 103 121 119 114 113 112 111 107 107 92 80 81 76 78 77 79 82 91 96 95 95 93 91 87 84 81 78 77 73 71 68 67
181 186 184 181 179 179 180 178 182 177 178 176 174 172 170 170 172 172 164 160 159 158 158 161 159 154 151 147 149 168 158 160 166 169 161 167 131 137 141 126 129 124 106 101 97 92 89 87 86 87 90 89 87 108 122 122 117 114 113 109 110 98 92 95 94 86 83 89 87 90 96 98 100 97 92 90 88 84 79 78 76 74 72 69 67
189 192 194 184 183 185 184 184 185 181 178 176 177 176 170 175 175 173 171 165 163 162 163 167 162 154 151 151 152 165 167 163 163 158 171 162 151 145 146 140 135 124 110 101 94 90 87 84 86 88 92 95 125 130 124 118 113 114 114 113 105 99 99 92 90 91 85 81 87 95 96 96 96 96 95 92 89 84 82 78 76 75 74 73 73
200 200 195 190 188 188 186 188 188 183 179 180 180 177 178 175 180 174 172 169 169 168 165 168 165 160 158 154 158 158 171 166 165 157 167 121 151 157 153 151 144 135 125 109 88 88 81 76 80 95 101 120 141 129 132 130 121 119 119 109 104 106 105 102 97 91 84 84 90 90 91 93 94 97 99 96 91 88 85 82 80 78 77 78 77
202 203 197 194 193 194 191 191 190 184 182 185 184 182 185 177 178 174 170 171 174 173 171 168 168 162 158 158 160 158 163 169 166 143 154 169 160 158 152 154 148 153 129 143 114 82 56 109 88 123 136 133 131 139 133 130 133 138 123 117 112 113 112 109 100 90 90 87 89 92 94 93 93 94 97 98 92 88 83 83 82 81 79 79 79
196 199 200 199 200 198 193 195 192 189 187 187 185 185 183 178 179 175 174 175 177 172 175 170 171 167 165 164 164 162 166 168 168 174 186 171 177 171 173 175 168 162 140 147 168 120 195 116 128 135 120 129 138 136 136 137 139 134 122 118 117 115 110 108 104 100 92 87 86 92 91 90 95 98 93 87 87 86 87 86 87 87 84 80 77
187 196 202 204 202 204 198 196 194 192 190 190 190 186 180 184 179 179 177 177 180 179 178 182 178 173 174 169 167 168 171 171 171 170 170 177 187 184 181 173 172 163 169 175 165 151 144 135 133 135 132 137 140 140 140 139 138 132 127 125 121 116 113 110 110 104 96 95 90 88 93 98 97 95 92 91 91 92 91 91 89 86 85 83 81
183 196 196 205 204 205 203 199 196 192 194 193 190 189 186 186 180 181 177 176 179 179 181 186 185 178 176 173 173 173 175 176 176 174 171 178 186 192 184 170 170 161 163 202 180 154 147 140 133 137 143 141 145 139 142 143 136 133 131 128 123 120 115 114 109 108 105 98 91 82 83 85 94 95 96 95 95 96 96 95 90 85 82 84 83
185 189 197 203 203 205 204 201 200 195 192 196 190 194 187 184 184 185 192 181 187 185 185 190 183 181 181 181 178 175 176 177 180 180 179 182 189 189 180 171 170 163 154 227 190 152 147 137 137 148 157 146 146 143 141 138 137 134 131 128 127 122 111 105 98 99 97 91 95 85 85 88 87 92 99 100 100 99 97 92 93 93 90 81 77
190 193 198 202 204 205 205 204 203 200 197 196 194 195 187 187 185 192 193 183 192 189 181 181 184 181 185 183 175 173 176 178 181 182 182 190 189 182 180 170 155 158 170 181 181 153 161 158 151 169 155 149 144 144 144 140 139 137 135 131 121 114 113 111 108 103 94 91 89 87 89 90 92 94 96 97 97 97 95 94 89 86 87 86 81
191 194 199 204 204 203 206 206 206 202 199 196 197 196 190 190 193 195 191 185 189 185 177 184 187 181 181 184 173 171 175 177 177 178 185 190 187 181 176 168 155 157 178 168 167 166 175 160 165 167 156 153 149 146 147 142 140 140 135 128 122 116 114 113 110 103 100 96 93 92 88 92 96 100 99 97 95 91 87 87 91 92 89 86 85
179 193 200 204 203 204 207 208 207 206 203 201 199 198 195 197 196 195 190 192 182 175 177 181 182 182 177 176 172 170 171 168 166 171 183 182 175 183 178 168 162 165 170 160 165 169 185 188 172 167 159 155 147 149 152 146 143 137 131 125 121 119 111 111 111 105 102 100 99 97 95 93 94 95 98 101 101 101 98 93 89 87 86 85 85
187 188 198 201 200 204 207 207 206 206 207 205 201 201 198 198 197 196 194 191 174 176 178 180 178 177 171 169 170 170 169 160 170 173 184 185 180 186 177 169 161 158 166 162 157 168 192 177 167 165 151 147 145 151 152 148 139 131 131 126 121 120 117 113 110 103 100 100 104 106 105 104 98 96 95 95 96 97 94 91 88 88 87 87 88
197 188 184 192 199 201 203 205 205 206 206 207 207 203 201 199 198 200 198 188 183 182 182 180 172 166 166 169 166 168 170 168 183 187 191 191 180 178 174 173 162 159 157 156 158 163 176 167 155 151 148 147 148 149 149 134 128 130 129 123 121 115 115 114 109 109 107 103 105 109 109 110 109 98 95 93 89 89 91 90 88 89 92 94 92
183 194 183 188 195 200 200 201 202 204 207 208 208 206 202 200 201 200 197 191 193 186 179 170 164 164 167 170 172 171 177 175 181 189 193 192 184 182 174 170 164 157 153 159 168 175 172 167 153 152 156 154 152 152 144 134 128 128 125 124 118 116 118 115 112 109 108 111 110 113 114 116 118 114 106 95 90 87 84 88 90 88 87 88 89
171 184 191 183 188 194 194 199 198 203 205 209 210 209 203 204 201 200 196 195 193 186 173 163 168 170 169 168 178 176 185 185 188 187 193 195 192 186 185 177 166 161 162 169 173 174 168 167 161 151 160 154 153 153 143 135 136 132 126 123 118 118 114 117 118 112 114 117 121 112 111 110 113 122 121 114 99 89 86 87 85 81 82 83 84
179 180 183 177 184 192 192 194 194 201 204 210 210 210 207 208 206 200 196 196 193 186 167 168 171 170 170 170 183 179 187 191 192 191 194 196 195 195 188 176 171 169 170 169 174 170 168 162 162 151 158 156 157 146 140 132 131 128 124 116 115 123 127 127 121 119 123 133 120 123 118 117 123 116 111 106 108 104 99 94 91 88 83 79 78
186 178 174 178 181 191 193 194 195 198 203 207 210 211 211 211 210 201 200 196 196 184 171 165 170 172 169 175 181 178 186 192 196 196 197 194 196 195 184 179 174 177 175 172 179 175 164 159 157 159 150 152 154 142 131 128 122 121 122 114 118 133 133 125 125 121 124 123 132 130 126 126 117 124 128 116 117 119 111 106 101 95 85 81 81
193 190 182 176 176 182 193 196 194 198 201 205 209 212 213 214 211 204 198 198 200 183 170 169 172 173 178 184 180 177 178 188 196 195 197 194 189 185 175 175 176 177 176 173 175 170 164 158 153 151 148 145 147 142 135 128 125 125 118 114 126 133 123 127 121 131 134 135 137 132 126 129 134 127 121 126 120 121 123 121 115 104 94 86 81
183 188 188 187 175 174 186 196 192 194 198 201 205 211 212 215 210 203 199 200 196 187 171 173 173 173 185 185 179 177 175 185 192 189 190 184 182 179 173 177 176 174 173 173 165 165 154 154 152 140 131 140 143 142 138 128 120 117 115 115 120 120 124 122 131 133 136 138 133 131 137 132 130 131 130 133 137 132 131 134 142 126 109 95 85
179 184 189 190 183 170 179 191 195 192 192 195 201 208 208 209 206 200 201 201 197 183 181 178 167 179 186 183 181 177 175 184 190 185 184 180 178 179 176 174 175 176 175 176 169 166 160 152 148 144 133 111 117 130 127 121 106 99 103 102 104 125 127 117 133 140 144 153 149 150 145 143 143 141 141 134 143 142 137 132 127 121 118 106 19
181 184 187 192 190 179 172 188 192 190 189 190 198 202 205 205 205 202 202 197 197 181 180 179 176 183 183 186 181 178 176 182 189 185 183 180 182 177 173 174 178 186 184 183 167 161 159 154 143 143 138 129 129 139 137 132 124 109 105 115 115 93 96 117 151 162 171 170 162 162 153 161 154 153 152 155 157 154 147 141 129 128 125 120 141
188 186 192 192 188 185 177 177 182 191 195 193 193 201 206 205 200 202 199 193 192 184 181 183 181 177 181 184 182 177 179 187 188 186 180 181 178 176 176 176 182 189 189 178 156 152 153 149 146 137 149 145 148 159 156 143 150 153 151 144 124 114 93 145 192 191 189 183 179 175 169 174 163 161 162 179 176 172 158 152 152 132 138 151 116
187 187 189 182 187 188 184 175 179 192 198 193 192 201 203 207 202 192 193 189 202 193 180 173 174 179 183 186 183 177 183 192 186 184 182 187 183 179 181 179 187 186 184 174 159 157 165 163 165 152 145 135 136 160 171 200 154 134 123 132 160 170 163 200 214 213 203 195 192 191 182 184 174 174 176 192 186 182 169 167 162 180 168 186 131
178 182 184 190 191 192 188 179 182 191 189 192 195 200 205 204 203 170 174 171 187 180 177 164 178 180 185 187 183 181 191 191 191 186 189 186 183 182 182 184 187 189 188 180 169 167 168 172 172 160 146 142 157 171 195 224 160 139 158 204 158 196 188 207 194 199 205 202 204 202 193 192 184 187 191 204 189 181 181 183 199 202 218 208 251
185 188 188 189 191 191 186 179 177 189 191 194 194 194 194 193 193 154 165 165 141 173 177 191 197 195 189 189 190 189 192 193 189 192 193 187 185 186 186 187 185 189 190 182 175 176 177 177 173 165 168 156 162 170 190 205 190 197 145 129 133 211 237 143 172 183 196 207 210 212 198 209 194 194 206 204 182 188 194 200 209 216 213 203 161
188 190 188 189 182 180 181 180 177 182 194 198 194 193 198 194 191 196 193 201 195 196 197 194 189 194 197 190 186 188 190 191 187 192 195 186 188 191 192 187 186 187 189 187 175 169 178 182 182 178 179 170 158 163 176 194 204 205 249 333 319 302 169 147 172 188 179 220 211 210 207 209 210 204 208 195 189 184 189 202 195 196 175 152 134
196 186 180 180 180 183 181 182 182 180 192 196 193 192 197 199 197 193 192 198 204 203 201 192 190 193 190 186 184 186 188 187 188 188 188 188 189 192 192 187 184 185 179 182 178 180 185 187 177 184 184 167 148 169 180 176 187 232 217 276 301 264 143 145 199 138 181 189 218 209 213 210 208 215 207 195 187 183 195 211 187 179 137 138 125
193 174 177 181 184 184 179 182 184 175 183 195 193 195 200 203 202 196 196 195 196 194 199 198 179 185 189 187 181 182 187 189 184 186 187 188 190 191 191 188 190 186 180 188 187 183 181 180 179 178 171 173 183 180 178 169 179 198 196 204 174 140 159 127 180 202 213 178 189 204 212 203 204 214 217 199 195 192 190 210 193 161 153 134 140
176 176 179 185 185 179 175 179 184 176 178 181 192 197 202 203 199 194 197 200 192 174 176 184 180 194 191 186 185 180 183 189 186 183 187 191 191 193 189 191 189 190 183 190 185 178 183 176 174 180 193 192 197 192 160 182 195 190 170 192 171 162 165 158 185 192 218 206 186 181 188 170 209 206 198 210 208 203 211 192 166 152 130 131 138
177 178 171 157 170 175 180 182 187 182 176 181 187 198 200 202 197 194 191 188 184 180 175 188 197 194 195 190 187 179 179 180 186 187 187 194 194 190 185 185 183 183 187 190 181 179 187 188 183 187 190 192 196 188 195 190 196 193 187 173 179 152 174 174 186 193 222 254 243 194 183 180 194 193 178 202 203 200 189 156 161 162 141 139 136
136 158 164 173 177 182 185 186 188 179 174 182 187 199 199 205 203 193 190 183 176 174 183 193 194 192 198 193 190 184 179 180 179 186 191 194 195 188 183 182 180 176 181 178 186 189 188 187 185 186 186 193 192 197 203 205 196 194 195 190 195 187 190 199 195 197 216 199 212 208 188 199 199 169 187 187 203 182 166 153 158 144 143 146 137